Year,Month,Day,Hour,Minute,Value (Times are PST for temperature in C)
2013,10,13,00,00,5.60
2013,10,13,00,01,5.60
2013,10,13,00,02,5.50
2013,10,13,00,03,5.50
2013,10,13,00,04,5.50
2013,10,13,00,05,5.50
2013,10,13,00,06,5.40
2013,10,13,00,07,5.40
2013,10,13,00,08,5.40
2013,10,13,00,09,5.30
2013,10,13,00,10,5.30
2013,10,13,00,11,5.40
2013,10,13,00,12,5.40
2013,10,13,00,13,5.40
2013,10,13,00,14,5.50
2013,10,13,00,15,5.50
2013,10,13,00,16,5.50
2013,10,13,00,17,5.50
2013,10,13,00,18,5.60
2013,10,13,00,19,5.50
2013,10,13,00,20,5.50
2013,10,13,00,21,5.50
2013,10,13,00,22,5.50
2013,10,13,00,23,5.50
2013,10,13,00,24,5.60
2013,10,13,00,25,5.60
2013,10,13,00,26,5.60
2013,10,13,00,27,5.60
2013,10,13,00,28,5.50
2013,10,13,00,29,5.50
2013,10,13,00,30,5.50
2013,10,13,00,31,5.40
2013,10,13,00,32,5.40
2013,10,13,00,33,5.40
2013,10,13,00,34,5.40
2013,10,13,00,35,5.40
2013,10,13,00,36,5.30
2013,10,13,00,37,5.30
2013,10,13,00,38,5.30
2013,10,13,00,39,5.30
2013,10,13,00,40,5.20
2013,10,13,00,41,5.20
2013,10,13,00,42,5.20
2013,10,13,00,43,5.20
2013,10,13,00,44,5.20
2013,10,13,00,45,5.20
2013,10,13,00,46,5.20
2013,10,13,00,47,5.20
2013,10,13,00,48,5.30
2013,10,13,00,49,5.30
2013,10,13,00,50,5.30
2013,10,13,00,51,5.40
2013,10,13,00,52,5.40
2013,10,13,00,53,5.40
2013,10,13,00,54,5.50
2013,10,13,00,55,5.50
2013,10,13,00,56,5.50
2013,10,13,00,57,5.50
2013,10,13,00,58,5.50
2013,10,13,00,59,5.50
2013,10,13,01,00,5.50
2013,10,13,01,01,5.50
2013,10,13,01,02,5.50
2013,10,13,01,03,5.50
2013,10,13,01,04,5.50
2013,10,13,01,05,5.50
2013,10,13,01,06,5.50
2013,10,13,01,07,5.60
2013,10,13,01,08,5.60
2013,10,13,01,09,5.60
2013,10,13,01,10,5.60
2013,10,13,01,11,5.70
2013,10,13,01,12,5.70
2013,10,13,01,13,5.70
2013,10,13,01,14,5.60
2013,10,13,01,15,5.60
2013,10,13,01,16,5.50
2013,10,13,01,17,5.50
2013,10,13,01,18,5.40
2013,10,13,01,19,5.30
2013,10,13,01,20,5.30
2013,10,13,01,21,5.20
2013,10,13,01,22,5.20
2013,10,13,01,23,5.10
2013,10,13,01,24,5.10
2013,10,13,01,25,5.00
2013,10,13,01,26,5.00
2013,10,13,01,27,5.00
2013,10,13,01,28,5.00
2013,10,13,01,29,5.00
2013,10,13,01,30,4.90
2013,10,13,01,31,4.90
2013,10,13,01,32,4.90
2013,10,13,01,33,4.90
2013,10,13,01,34,4.80
2013,10,13,01,35,4.80
2013,10,13,01,36,4.80
2013,10,13,01,37,4.80
2013,10,13,01,38,4.80
2013,10,13,01,39,4.80
2013,10,13,01,40,4.90
2013,10,13,01,41,4.90
2013,10,13,01,42,5.00
2013,10,13,01,43,5.00
2013,10,13,01,44,5.10
2013,10,13,01,45,5.10
2013,10,13,01,46,5.10
2013,10,13,01,47,5.10
2013,10,13,01,48,5.10
2013,10,13,01,49,5.10
2013,10,13,01,50,5.10
2013,10,13,01,51,5.00
2013,10,13,01,52,5.00
2013,10,13,01,53,5.00
2013,10,13,01,54,5.00
2013,10,13,01,55,5.00
2013,10,13,01,56,4.90
2013,10,13,01,57,4.90
2013,10,13,01,58,4.90
2013,10,13,01,59,4.80
2013,10,13,02,00,4.80
2013,10,13,02,01,4.80
2013,10,13,02,02,4.80
2013,10,13,02,03,4.80
2013,10,13,02,04,4.80
2013,10,13,02,05,4.80
2013,10,13,02,06,4.80
2013,10,13,02,07,4.80
2013,10,13,02,08,4.80
2013,10,13,02,09,4.80
2013,10,13,02,10,4.80
2013,10,13,02,11,4.70
2013,10,13,02,12,4.70
2013,10,13,02,13,4.70
2013,10,13,02,14,4.80
2013,10,13,02,15,4.80
2013,10,13,02,16,4.80
2013,10,13,02,17,4.80
2013,10,13,02,18,4.80
2013,10,13,02,19,4.70
2013,10,13,02,20,4.70
2013,10,13,02,21,4.70
2013,10,13,02,22,4.70
2013,10,13,02,23,4.70
2013,10,13,02,24,4.60
2013,10,13,02,25,4.60
2013,10,13,02,26,4.60
2013,10,13,02,27,4.60
2013,10,13,02,28,4.60
2013,10,13,02,29,4.60
2013,10,13,02,30,4.60
2013,10,13,02,31,4.60
2013,10,13,02,32,4.60
2013,10,13,02,33,4.50
2013,10,13,02,34,4.50
2013,10,13,02,35,4.50
2013,10,13,02,36,4.50
2013,10,13,02,37,4.50
2013,10,13,02,38,4.50
2013,10,13,02,39,4.50
2013,10,13,02,40,4.50
2013,10,13,02,41,4.50
2013,10,13,02,42,4.50
2013,10,13,02,43,4.50
2013,10,13,02,44,4.50
2013,10,13,02,45,4.60
2013,10,13,02,46,4.60
2013,10,13,02,47,4.60
2013,10,13,02,48,4.60
2013,10,13,02,49,4.60
2013,10,13,02,50,4.70
2013,10,13,02,51,4.70
2013,10,13,02,52,4.70
2013,10,13,02,53,4.80
2013,10,13,02,54,4.80
2013,10,13,02,55,4.90
2013,10,13,02,56,4.90
2013,10,13,02,57,5.00
2013,10,13,02,58,5.10
2013,10,13,02,59,5.10
2013,10,13,03,00,5.10
2013,10,13,03,01,5.30
2013,10,13,03,02,5.40
2013,10,13,03,03,5.50
2013,10,13,03,04,5.60
2013,10,13,03,05,5.70
2013,10,13,03,06,5.70
2013,10,13,03,07,5.80
2013,10,13,03,08,5.80
2013,10,13,03,09,5.80
2013,10,13,03,10,5.90
2013,10,13,03,11,5.90
2013,10,13,03,12,5.90
2013,10,13,03,13,5.90
2013,10,13,03,14,5.90
2013,10,13,03,15,5.90
2013,10,13,03,16,5.80
2013,10,13,03,17,5.80
2013,10,13,03,18,5.80
2013,10,13,03,19,5.70
2013,10,13,03,20,5.70
2013,10,13,03,21,5.70
2013,10,13,03,22,5.70
2013,10,13,03,23,5.70
2013,10,13,03,24,5.70
2013,10,13,03,25,5.70
2013,10,13,03,26,5.70
2013,10,13,03,27,5.70
2013,10,13,03,28,5.70
2013,10,13,03,29,5.70
2013,10,13,03,30,5.70
2013,10,13,03,31,5.70
2013,10,13,03,32,5.60
2013,10,13,03,33,5.60
2013,10,13,03,34,5.60
2013,10,13,03,35,5.60
2013,10,13,03,36,5.60
2013,10,13,03,37,5.50
2013,10,13,03,38,5.50
2013,10,13,03,39,5.50
2013,10,13,03,40,5.50
2013,10,13,03,41,5.40
2013,10,13,03,42,5.40
2013,10,13,03,43,5.40
2013,10,13,03,44,5.30
2013,10,13,03,45,5.30
2013,10,13,03,46,5.30
2013,10,13,03,47,5.30
2013,10,13,03,48,5.30
2013,10,13,03,49,5.30
2013,10,13,03,50,5.30
2013,10,13,03,51,5.30
2013,10,13,03,52,5.30
2013,10,13,03,53,5.30
2013,10,13,03,54,5.30
2013,10,13,03,55,5.20
2013,10,13,03,56,5.10
2013,10,13,03,57,5.10
2013,10,13,03,58,5.10
2013,10,13,03,59,5.00
2013,10,13,04,00,5.00
2013,10,13,04,01,5.00
2013,10,13,04,02,5.00
2013,10,13,04,03,5.00
2013,10,13,04,04,5.00
2013,10,13,04,05,4.90
2013,10,13,04,06,4.90
2013,10,13,04,07,4.90
2013,10,13,04,08,4.90
2013,10,13,04,09,4.90
2013,10,13,04,10,4.90
2013,10,13,04,11,4.90
2013,10,13,04,12,5.00
2013,10,13,04,13,5.00
2013,10,13,04,14,5.10
2013,10,13,04,15,5.20
2013,10,13,04,16,5.30
2013,10,13,04,17,5.40
2013,10,13,04,18,5.50
2013,10,13,04,19,5.50
2013,10,13,04,20,5.50
2013,10,13,04,21,5.50
2013,10,13,04,22,5.50
2013,10,13,04,23,5.50
2013,10,13,04,24,5.40
2013,10,13,04,25,5.40
2013,10,13,04,26,5.30
2013,10,13,04,27,5.30
2013,10,13,04,28,5.30
2013,10,13,04,29,5.20
2013,10,13,04,30,5.10
2013,10,13,04,31,5.10
2013,10,13,04,32,5.10
2013,10,13,04,33,5.00
2013,10,13,04,34,5.00
2013,10,13,04,35,4.90
2013,10,13,04,36,4.90
2013,10,13,04,37,4.90
2013,10,13,04,38,4.90
2013,10,13,04,39,4.90
2013,10,13,04,40,4.90
2013,10,13,04,41,4.90
2013,10,13,04,42,4.90
2013,10,13,04,43,4.90
2013,10,13,04,44,5.00
2013,10,13,04,45,5.00
2013,10,13,04,46,5.00
2013,10,13,04,47,5.00
2013,10,13,04,48,5.00
2013,10,13,04,49,5.10
2013,10,13,04,50,5.10
2013,10,13,04,51,5.10
2013,10,13,04,52,5.10
2013,10,13,04,53,5.10
2013,10,13,04,54,5.10
2013,10,13,04,55,5.10
2013,10,13,04,56,5.10
2013,10,13,04,57,5.10
2013,10,13,04,58,5.10
2013,10,13,04,59,5.10
2013,10,13,05,00,5.00
2013,10,13,05,01,5.00
2013,10,13,05,02,5.00
2013,10,13,05,03,4.90
2013,10,13,05,04,4.90
2013,10,13,05,05,4.90
2013,10,13,05,06,4.90
2013,10,13,05,07,4.90
2013,10,13,05,08,4.90
2013,10,13,05,09,4.90
2013,10,13,05,10,4.90
2013,10,13,05,11,4.90
2013,10,13,05,12,4.90
2013,10,13,05,13,5.00
2013,10,13,05,14,5.00
2013,10,13,05,15,5.10
2013,10,13,05,16,5.10
2013,10,13,05,17,5.10
2013,10,13,05,18,5.10
2013,10,13,05,19,5.10
2013,10,13,05,20,5.10
2013,10,13,05,21,5.10
2013,10,13,05,22,5.20
2013,10,13,05,23,5.40
2013,10,13,05,24,5.50
2013,10,13,05,25,5.50
2013,10,13,05,26,5.50
2013,10,13,05,27,5.60
2013,10,13,05,28,5.70
2013,10,13,05,29,5.70
2013,10,13,05,30,5.80
2013,10,13,05,31,5.80
2013,10,13,05,32,5.80
2013,10,13,05,33,5.90
2013,10,13,05,34,5.90
2013,10,13,05,35,5.90
2013,10,13,05,36,5.90
2013,10,13,05,37,5.90
2013,10,13,05,38,5.80
2013,10,13,05,39,5.80
2013,10,13,05,40,5.80
2013,10,13,05,41,5.70
2013,10,13,05,42,5.70
2013,10,13,05,43,5.70
2013,10,13,05,44,5.60
2013,10,13,05,45,5.60
2013,10,13,05,46,5.50
2013,10,13,05,47,5.50
2013,10,13,05,48,5.50
2013,10,13,05,49,5.40
2013,10,13,05,50,5.40
2013,10,13,05,51,5.50
2013,10,13,05,52,5.50
2013,10,13,05,53,5.50
2013,10,13,05,54,5.60
2013,10,13,05,55,5.60
2013,10,13,05,56,5.50
2013,10,13,05,57,5.50
2013,10,13,05,58,5.50
2013,10,13,05,59,5.60
2013,10,13,06,00,5.60
2013,10,13,06,01,5.60
2013,10,13,06,02,5.60
2013,10,13,06,03,5.60
2013,10,13,06,04,5.50
2013,10,13,06,05,5.50
2013,10,13,06,06,5.40
2013,10,13,06,07,5.40
2013,10,13,06,08,5.40
2013,10,13,06,09,5.30
2013,10,13,06,10,5.30
2013,10,13,06,11,5.40
2013,10,13,06,12,5.40
2013,10,13,06,13,5.40
2013,10,13,06,14,5.40
2013,10,13,06,15,5.40
2013,10,13,06,16,5.40
2013,10,13,06,17,5.40
2013,10,13,06,18,5.50
2013,10,13,06,19,5.50
2013,10,13,06,20,5.50
2013,10,13,06,21,5.50
2013,10,13,06,22,5.50
2013,10,13,06,23,5.50
2013,10,13,06,24,5.50
2013,10,13,06,25,5.60
2013,10,13,06,26,5.60
2013,10,13,06,27,5.60
2013,10,13,06,28,5.60
2013,10,13,06,29,5.60
2013,10,13,06,30,5.60
2013,10,13,06,31,5.50
2013,10,13,06,32,5.50
2013,10,13,06,33,5.50
2013,10,13,06,34,5.40
2013,10,13,06,35,5.40
2013,10,13,06,36,5.40
2013,10,13,06,37,5.40
2013,10,13,06,38,5.40
2013,10,13,06,39,5.40
2013,10,13,06,40,5.40
2013,10,13,06,41,5.30
2013,10,13,06,42,5.30
2013,10,13,06,43,5.30
2013,10,13,06,44,5.30
2013,10,13,06,45,5.30
2013,10,13,06,46,5.30
2013,10,13,06,47,5.30
2013,10,13,06,48,5.30
2013,10,13,06,49,5.30
2013,10,13,06,50,5.30
2013,10,13,06,51,5.30
2013,10,13,06,52,5.30
2013,10,13,06,53,5.30
2013,10,13,06,54,5.30
2013,10,13,06,55,5.30
2013,10,13,06,56,5.30
2013,10,13,06,57,5.30
2013,10,13,06,58,5.30
2013,10,13,06,59,5.40
2013,10,13,07,00,5.40
2013,10,13,07,01,5.40
2013,10,13,07,02,5.40
2013,10,13,07,03,5.30
2013,10,13,07,04,5.30
2013,10,13,07,05,5.30
2013,10,13,07,06,5.30
2013,10,13,07,07,5.20
2013,10,13,07,08,5.20
2013,10,13,07,09,5.20
2013,10,13,07,10,5.20
2013,10,13,07,11,5.20
2013,10,13,07,12,5.30
2013,10,13,07,13,5.30
2013,10,13,07,14,5.30
2013,10,13,07,15,5.40
2013,10,13,07,16,5.40
2013,10,13,07,17,5.40
2013,10,13,07,18,5.40
2013,10,13,07,19,5.40
2013,10,13,07,20,5.40
2013,10,13,07,21,5.40
2013,10,13,07,22,5.50
2013,10,13,07,23,5.50
2013,10,13,07,24,5.50
2013,10,13,07,25,5.60
2013,10,13,07,26,5.60
2013,10,13,07,27,5.60
2013,10,13,07,28,5.70
2013,10,13,07,29,5.70
2013,10,13,07,30,5.70
2013,10,13,07,31,5.70
2013,10,13,07,32,5.70
2013,10,13,07,33,5.70
2013,10,13,07,34,5.70
2013,10,13,07,35,5.70
2013,10,13,07,36,5.70
2013,10,13,07,37,5.70
2013,10,13,07,38,5.70
2013,10,13,07,39,5.70
2013,10,13,07,40,5.60
2013,10,13,07,41,5.60
2013,10,13,07,42,5.60
2013,10,13,07,43,5.60
2013,10,13,07,44,5.60
2013,10,13,07,45,5.60
2013,10,13,07,46,5.60
2013,10,13,07,47,5.60
2013,10,13,07,48,5.60
2013,10,13,07,49,5.60
2013,10,13,07,50,5.60
2013,10,13,07,51,5.60
2013,10,13,07,52,5.60
2013,10,13,07,53,5.60
2013,10,13,07,54,5.60
2013,10,13,07,55,5.60
2013,10,13,07,56,5.60
2013,10,13,07,57,5.70
2013,10,13,07,58,5.70
2013,10,13,07,59,5.70
2013,10,13,08,00,5.70
2013,10,13,08,01,5.60
2013,10,13,08,02,5.60
2013,10,13,08,03,5.60
2013,10,13,08,04,5.60
2013,10,13,08,05,5.60
2013,10,13,08,06,5.60
2013,10,13,08,07,5.60
2013,10,13,08,08,5.60
2013,10,13,08,09,5.60
2013,10,13,08,10,5.60
2013,10,13,08,11,5.60
2013,10,13,08,12,5.70
2013,10,13,08,13,5.70
2013,10,13,08,14,5.70
2013,10,13,08,15,5.70
2013,10,13,08,16,5.80
2013,10,13,08,17,5.80
2013,10,13,08,18,5.80
2013,10,13,08,19,5.90
2013,10,13,08,20,5.90
2013,10,13,08,21,5.90
2013,10,13,08,22,5.90
2013,10,13,08,23,5.90
2013,10,13,08,24,6.00
2013,10,13,08,25,6.00
2013,10,13,08,26,6.00
2013,10,13,08,27,6.10
2013,10,13,08,28,6.10
2013,10,13,08,29,6.20
2013,10,13,08,30,6.20
2013,10,13,08,31,6.30
2013,10,13,08,32,6.30
2013,10,13,08,33,6.40
2013,10,13,08,34,6.40
2013,10,13,08,35,6.50
2013,10,13,08,36,6.60
2013,10,13,08,37,6.60
2013,10,13,08,38,6.70
2013,10,13,08,39,6.70
2013,10,13,08,40,6.80
2013,10,13,08,41,6.80
2013,10,13,08,42,6.90
2013,10,13,08,43,7.00
2013,10,13,08,44,7.10
2013,10,13,08,45,7.10
2013,10,13,08,46,7.20
2013,10,13,08,47,7.20
2013,10,13,08,48,7.30
2013,10,13,08,49,7.40
2013,10,13,08,50,7.50
2013,10,13,08,51,7.50
2013,10,13,08,52,7.60
2013,10,13,08,53,7.70
2013,10,13,08,54,7.70
2013,10,13,08,55,7.80
2013,10,13,08,56,7.80
2013,10,13,08,57,7.90
2013,10,13,08,58,8.00
2013,10,13,08,59,8.00
2013,10,13,09,00,8.10
2013,10,13,09,01,8.10
2013,10,13,09,02,8.20
2013,10,13,09,03,8.20
2013,10,13,09,04,8.20
2013,10,13,09,05,8.30
2013,10,13,09,06,8.30
2013,10,13,09,07,8.40
2013,10,13,09,08,8.50
2013,10,13,09,09,8.60
2013,10,13,09,10,8.60
2013,10,13,09,11,8.70
2013,10,13,09,12,8.80
2013,10,13,09,13,9.00
2013,10,13,09,14,9.10
2013,10,13,09,15,9.30
2013,10,13,09,16,9.40
2013,10,13,09,17,9.50
2013,10,13,09,18,9.60
2013,10,13,09,19,9.70
2013,10,13,09,20,9.80
2013,10,13,09,21,9.90
2013,10,13,09,22,9.90
2013,10,13,09,23,10.00
2013,10,13,09,24,10.10
2013,10,13,09,25,10.10
2013,10,13,09,26,10.10
2013,10,13,09,27,10.10
2013,10,13,09,28,10.10
2013,10,13,09,29,10.10
2013,10,13,09,30,10.20
2013,10,13,09,31,10.20
2013,10,13,09,32,10.20
2013,10,13,09,33,10.20
2013,10,13,09,34,10.20
2013,10,13,09,35,10.20
2013,10,13,09,36,10.10
2013,10,13,09,37,10.10
2013,10,13,09,38,10.00
2013,10,13,09,39,10.00
2013,10,13,09,40,9.90
2013,10,13,09,41,9.90
2013,10,13,09,42,9.80
2013,10,13,09,43,9.80
2013,10,13,09,44,9.80
2013,10,13,09,45,9.80
2013,10,13,09,46,9.80
2013,10,13,09,47,9.80
2013,10,13,09,48,9.80
2013,10,13,09,49,9.90
2013,10,13,09,50,9.90
2013,10,13,09,51,9.90
2013,10,13,09,52,9.90
2013,10,13,09,53,10.00
2013,10,13,09,54,10.00
2013,10,13,09,55,10.10
2013,10,13,09,56,10.20
2013,10,13,09,57,10.20
2013,10,13,09,58,10.30
2013,10,13,09,59,10.30
2013,10,13,10,00,10.40
2013,10,13,10,01,10.40
2013,10,13,10,02,10.50
2013,10,13,10,03,10.60
2013,10,13,10,04,10.60
2013,10,13,10,05,10.60
2013,10,13,10,06,10.70
2013,10,13,10,07,10.80
2013,10,13,10,08,10.80
2013,10,13,10,09,10.80
2013,10,13,10,10,10.80
2013,10,13,10,11,10.90
2013,10,13,10,12,10.90
2013,10,13,10,13,10.90
2013,10,13,10,14,10.90
2013,10,13,10,15,10.90
2013,10,13,10,16,10.90
2013,10,13,10,17,10.90
2013,10,13,10,18,10.90
2013,10,13,10,19,10.90
2013,10,13,10,20,10.90
2013,10,13,10,21,10.90
2013,10,13,10,22,10.90
2013,10,13,10,23,11.00
2013,10,13,10,24,11.00
2013,10,13,10,25,10.90
2013,10,13,10,26,11.00
2013,10,13,10,27,11.00
2013,10,13,10,28,11.00
2013,10,13,10,29,11.10
2013,10,13,10,30,11.10
2013,10,13,10,31,11.10
2013,10,13,10,32,11.20
2013,10,13,10,33,11.20
2013,10,13,10,34,11.20
2013,10,13,10,35,11.20
2013,10,13,10,36,11.20
2013,10,13,10,37,11.20
2013,10,13,10,38,11.30
2013,10,13,10,39,11.30
2013,10,13,10,40,11.30
2013,10,13,10,41,11.40
2013,10,13,10,42,11.40
2013,10,13,10,43,11.50
2013,10,13,10,44,11.60
2013,10,13,10,45,11.60
2013,10,13,10,46,11.60
2013,10,13,10,47,11.60
2013,10,13,10,48,11.60
2013,10,13,10,49,11.60
2013,10,13,10,50,11.60
2013,10,13,10,51,11.60
2013,10,13,10,52,11.60
2013,10,13,10,53,11.60
2013,10,13,10,54,11.60
2013,10,13,10,55,11.60
2013,10,13,10,56,11.50
2013,10,13,10,57,11.50
2013,10,13,10,58,11.40
2013,10,13,10,59,11.30
2013,10,13,11,00,11.20
2013,10,13,11,01,11.20
2013,10,13,11,02,11.10
2013,10,13,11,03,11.00
2013,10,13,11,04,10.90
2013,10,13,11,05,10.90
2013,10,13,11,06,10.90
2013,10,13,11,07,10.90
2013,10,13,11,08,11.00
2013,10,13,11,09,11.00
2013,10,13,11,10,11.10
2013,10,13,11,11,11.10
2013,10,13,11,12,11.00
2013,10,13,11,13,10.90
2013,10,13,11,14,10.90
2013,10,13,11,15,10.90
2013,10,13,11,16,10.80
2013,10,13,11,17,10.80
2013,10,13,11,18,10.80
2013,10,13,11,19,10.80
2013,10,13,11,20,10.80
2013,10,13,11,21,10.90
2013,10,13,11,22,11.00
2013,10,13,11,23,11.00
2013,10,13,11,24,11.10
2013,10,13,11,25,11.20
2013,10,13,11,26,11.30
2013,10,13,11,27,11.30
2013,10,13,11,28,11.30
2013,10,13,11,29,11.40
2013,10,13,11,30,11.40
2013,10,13,11,31,11.40
2013,10,13,11,32,11.40
2013,10,13,11,33,11.40
2013,10,13,11,34,11.40
2013,10,13,11,35,11.30
2013,10,13,11,36,11.20
2013,10,13,11,37,11.20
2013,10,13,11,38,11.20
2013,10,13,11,39,11.30
2013,10,13,11,40,11.40
2013,10,13,11,41,11.60
2013,10,13,11,42,11.60
2013,10,13,11,43,11.60
2013,10,13,11,44,11.60
2013,10,13,11,45,11.70
2013,10,13,11,46,11.70
2013,10,13,11,47,11.70
2013,10,13,11,48,11.70
2013,10,13,11,49,11.70
2013,10,13,11,50,11.70
2013,10,13,11,51,11.70
2013,10,13,11,52,11.70
2013,10,13,11,53,11.70
2013,10,13,11,54,11.70
2013,10,13,11,55,11.70
2013,10,13,11,56,11.70
2013,10,13,11,57,11.70
2013,10,13,11,58,11.70
2013,10,13,11,59,11.80
2013,10,13,12,00,11.80
2013,10,13,12,01,11.70
2013,10,13,12,02,11.60
2013,10,13,12,03,11.50
2013,10,13,12,04,11.40
2013,10,13,12,05,11.40
2013,10,13,12,06,11.30
2013,10,13,12,07,11.30
2013,10,13,12,08,11.30
2013,10,13,12,09,11.30
2013,10,13,12,10,11.30
2013,10,13,12,11,11.30
2013,10,13,12,12,11.30
2013,10,13,12,13,11.40
2013,10,13,12,14,11.50
2013,10,13,12,15,11.60
2013,10,13,12,16,11.60
2013,10,13,12,17,11.60
2013,10,13,12,18,11.60
2013,10,13,12,19,11.60
2013,10,13,12,20,11.60
2013,10,13,12,21,11.60
2013,10,13,12,22,11.60
2013,10,13,12,23,11.50
2013,10,13,12,24,11.40
2013,10,13,12,25,11.40
2013,10,13,12,26,11.50
2013,10,13,12,27,11.50
2013,10,13,12,28,11.50
2013,10,13,12,29,11.40
2013,10,13,12,30,11.50
2013,10,13,12,31,11.50
2013,10,13,12,32,11.60
2013,10,13,12,33,11.70
2013,10,13,12,34,11.80
2013,10,13,12,35,11.80
2013,10,13,12,36,11.90
2013,10,13,12,37,11.90
2013,10,13,12,38,11.90
2013,10,13,12,39,11.90
2013,10,13,12,40,11.80
2013,10,13,12,41,11.80
2013,10,13,12,42,11.80
2013,10,13,12,43,11.90
2013,10,13,12,44,12.00
2013,10,13,12,45,12.00
2013,10,13,12,46,12.10
2013,10,13,12,47,12.10
2013,10,13,12,48,12.10
2013,10,13,12,49,12.10
2013,10,13,12,50,12.20
2013,10,13,12,51,12.20
2013,10,13,12,52,12.20
2013,10,13,12,53,12.20
2013,10,13,12,54,12.20
2013,10,13,12,55,12.30
2013,10,13,12,56,12.30
2013,10,13,12,57,12.40
2013,10,13,12,58,12.50
2013,10,13,12,59,12.50
2013,10,13,13,00,12.60
2013,10,13,13,01,12.50
2013,10,13,13,02,12.40
2013,10,13,13,03,12.40
2013,10,13,13,04,12.40
2013,10,13,13,05,12.50
2013,10,13,13,06,12.50
2013,10,13,13,07,12.50
2013,10,13,13,08,12.40
2013,10,13,13,09,12.40
2013,10,13,13,10,12.30
2013,10,13,13,11,12.30
2013,10,13,13,12,12.30
2013,10,13,13,13,12.40
2013,10,13,13,14,12.40
2013,10,13,13,15,12.50
2013,10,13,13,16,12.50
2013,10,13,13,17,12.60
2013,10,13,13,18,12.70
2013,10,13,13,19,12.70
2013,10,13,13,20,12.80
2013,10,13,13,21,12.80
2013,10,13,13,22,12.80
2013,10,13,13,23,12.80
2013,10,13,13,24,12.80
2013,10,13,13,25,12.80
2013,10,13,13,26,12.70
2013,10,13,13,27,12.70
2013,10,13,13,28,12.70
2013,10,13,13,29,12.60
2013,10,13,13,30,12.50
2013,10,13,13,31,12.50
2013,10,13,13,32,12.50
2013,10,13,13,33,12.50
2013,10,13,13,34,12.60
2013,10,13,13,35,12.60
2013,10,13,13,36,12.50
2013,10,13,13,37,12.50
2013,10,13,13,38,12.50
2013,10,13,13,39,12.50
2013,10,13,13,40,12.40
2013,10,13,13,41,12.40
2013,10,13,13,42,12.30
2013,10,13,13,43,12.30
2013,10,13,13,44,12.40
2013,10,13,13,45,12.40
2013,10,13,13,46,12.40
2013,10,13,13,47,12.40
2013,10,13,13,48,12.30
2013,10,13,13,49,12.30
2013,10,13,13,50,12.30
2013,10,13,13,51,12.30
2013,10,13,13,52,12.30
2013,10,13,13,53,12.40
2013,10,13,13,54,12.40
2013,10,13,13,55,12.40
2013,10,13,13,56,12.40
2013,10,13,13,57,12.40
2013,10,13,13,58,12.40
2013,10,13,13,59,12.40
2013,10,13,14,00,12.50
2013,10,13,14,01,12.50
2013,10,13,14,02,12.50
2013,10,13,14,03,12.60
2013,10,13,14,04,12.60
2013,10,13,14,05,12.70
2013,10,13,14,06,12.80
2013,10,13,14,07,12.90
2013,10,13,14,08,13.00
2013,10,13,14,09,13.00
2013,10,13,14,10,13.00
2013,10,13,14,11,13.00
2013,10,13,14,12,13.10
2013,10,13,14,13,13.10
2013,10,13,14,14,13.10
2013,10,13,14,15,13.20
2013,10,13,14,16,13.20
2013,10,13,14,17,13.20
2013,10,13,14,18,13.30
2013,10,13,14,19,13.40
2013,10,13,14,20,13.30
2013,10,13,14,21,13.30
2013,10,13,14,22,13.40
2013,10,13,14,23,13.40
2013,10,13,14,24,13.40
2013,10,13,14,25,13.40
2013,10,13,14,26,13.40
2013,10,13,14,27,13.40
2013,10,13,14,28,13.40
2013,10,13,14,29,13.40
2013,10,13,14,30,13.30
2013,10,13,14,31,13.30
2013,10,13,14,32,13.30
2013,10,13,14,33,13.30
2013,10,13,14,34,13.20
2013,10,13,14,35,13.10
2013,10,13,14,36,13.10
2013,10,13,14,37,13.10
2013,10,13,14,38,13.10
2013,10,13,14,39,13.10
2013,10,13,14,40,13.10
2013,10,13,14,41,13.20
2013,10,13,14,42,13.20
2013,10,13,14,43,13.20
2013,10,13,14,44,13.20
2013,10,13,14,45,13.20
2013,10,13,14,46,13.20
2013,10,13,14,47,13.20
2013,10,13,14,48,13.20
2013,10,13,14,49,13.20
2013,10,13,14,50,13.20
2013,10,13,14,51,13.20
2013,10,13,14,52,13.20
2013,10,13,14,53,13.20
2013,10,13,14,54,13.20
2013,10,13,14,55,13.20
2013,10,13,14,56,13.10
2013,10,13,14,57,13.10
2013,10,13,14,58,13.10
2013,10,13,14,59,13.10
2013,10,13,15,00,13.10
2013,10,13,15,01,13.10
2013,10,13,15,02,13.10
2013,10,13,15,03,13.10
2013,10,13,15,04,13.10
2013,10,13,15,05,13.10
2013,10,13,15,06,13.10
2013,10,13,15,07,13.10
2013,10,13,15,08,13.10
2013,10,13,15,09,13.10
2013,10,13,15,10,13.10
2013,10,13,15,11,13.20
2013,10,13,15,12,13.20
2013,10,13,15,13,13.20
2013,10,13,15,14,13.20
2013,10,13,15,15,13.20
2013,10,13,15,16,13.20
2013,10,13,15,17,13.30
2013,10,13,15,18,13.30
2013,10,13,15,19,13.40
2013,10,13,15,20,13.40
2013,10,13,15,21,13.40
2013,10,13,15,22,13.40
2013,10,13,15,23,13.40
2013,10,13,15,24,13.40
2013,10,13,15,25,13.40
2013,10,13,15,26,13.50
2013,10,13,15,27,13.60
2013,10,13,15,28,13.70
2013,10,13,15,29,13.70
2013,10,13,15,30,13.60
2013,10,13,15,31,13.60
2013,10,13,15,32,13.70
2013,10,13,15,33,13.70
2013,10,13,15,34,13.70
2013,10,13,15,35,13.70
2013,10,13,15,36,13.70
2013,10,13,15,37,13.70
2013,10,13,15,38,13.80
2013,10,13,15,39,13.70
2013,10,13,15,40,13.70
2013,10,13,15,41,13.70
2013,10,13,15,42,13.70
2013,10,13,15,43,13.70
2013,10,13,15,44,13.60
2013,10,13,15,45,13.60
2013,10,13,15,46,13.70
2013,10,13,15,47,13.70
2013,10,13,15,48,13.70
2013,10,13,15,49,13.70
2013,10,13,15,50,13.70
2013,10,13,15,51,13.70
2013,10,13,15,52,13.70
2013,10,13,15,53,13.70
2013,10,13,15,54,13.60
2013,10,13,15,55,13.60
2013,10,13,15,56,13.60
2013,10,13,15,57,13.50
2013,10,13,15,58,13.50
2013,10,13,15,59,13.50
2013,10,13,16,00,13.50
2013,10,13,16,01,13.50
2013,10,13,16,02,13.50
2013,10,13,16,03,13.50
2013,10,13,16,04,13.50
2013,10,13,16,05,13.50
2013,10,13,16,06,13.50
2013,10,13,16,07,13.50
2013,10,13,16,08,13.60
2013,10,13,16,09,13.60
2013,10,13,16,10,13.60
2013,10,13,16,11,13.60
2013,10,13,16,12,13.60
2013,10,13,16,13,13.60
2013,10,13,16,14,13.60
2013,10,13,16,15,13.60
2013,10,13,16,16,13.60
2013,10,13,16,17,13.60
2013,10,13,16,18,13.60
2013,10,13,16,19,13.60
2013,10,13,16,20,13.60
2013,10,13,16,21,13.60
2013,10,13,16,22,13.60
2013,10,13,16,23,13.70
2013,10,13,16,24,13.70
2013,10,13,16,25,13.70
2013,10,13,16,26,13.80
2013,10,13,16,27,13.80
2013,10,13,16,28,13.80
2013,10,13,16,29,13.80
2013,10,13,16,30,13.70
2013,10,13,16,31,13.70
2013,10,13,16,32,13.70
2013,10,13,16,33,13.70
2013,10,13,16,34,13.70
2013,10,13,16,35,13.70
2013,10,13,16,36,13.70
2013,10,13,16,37,13.80
2013,10,13,16,38,13.80
2013,10,13,16,39,13.80
2013,10,13,16,40,13.80
2013,10,13,16,41,13.80
2013,10,13,16,42,13.70
2013,10,13,16,43,13.70
2013,10,13,16,44,13.70
2013,10,13,16,45,13.70
2013,10,13,16,46,13.60
2013,10,13,16,47,13.50
2013,10,13,16,48,13.50
2013,10,13,16,49,13.40
2013,10,13,16,50,13.40
2013,10,13,16,51,13.40
2013,10,13,16,52,13.40
2013,10,13,16,53,13.30
2013,10,13,16,54,13.30
2013,10,13,16,55,13.30
2013,10,13,16,56,13.20
2013,10,13,16,57,13.20
2013,10,13,16,58,13.10
2013,10,13,16,59,13.10
2013,10,13,17,00,13.00
2013,10,13,17,01,12.90
2013,10,13,17,02,12.90
2013,10,13,17,03,12.90
2013,10,13,17,04,12.80
2013,10,13,17,05,12.80
2013,10,13,17,06,12.80
2013,10,13,17,07,12.80
2013,10,13,17,08,12.80
2013,10,13,17,09,12.80
2013,10,13,17,10,12.80
2013,10,13,17,11,12.80
2013,10,13,17,12,12.80
2013,10,13,17,13,12.80
2013,10,13,17,14,12.80
2013,10,13,17,15,12.80
2013,10,13,17,16,12.80
2013,10,13,17,17,12.80
2013,10,13,17,18,12.80
2013,10,13,17,19,12.80
2013,10,13,17,20,12.80
2013,10,13,17,21,12.80
2013,10,13,17,22,12.70
2013,10,13,17,23,12.70
2013,10,13,17,24,12.70
2013,10,13,17,25,12.70
2013,10,13,17,26,12.70
2013,10,13,17,27,12.70
2013,10,13,17,28,12.70
2013,10,13,17,29,12.70
2013,10,13,17,30,12.70
2013,10,13,17,31,12.70
2013,10,13,17,32,12.70
2013,10,13,17,33,12.70
2013,10,13,17,34,12.70
2013,10,13,17,35,12.70
2013,10,13,17,36,12.70
2013,10,13,17,37,12.70
2013,10,13,17,38,12.70
2013,10,13,17,39,12.60
2013,10,13,17,40,12.60
2013,10,13,17,41,12.60
2013,10,13,17,42,12.60
2013,10,13,17,43,12.50
2013,10,13,17,44,12.50